Date String (YYYY-MM-DD hh:mm:ss) UTC,Instrument flags,absolute air pressure of the measurement (hPa),sample flow rate (lpm),inlet stack bypass flow (lpm),air temperature of the measurement (°C),ambient temperature measured by the external sensor (°C),aerosol sample conditioner tube jacket temperature (°C),OPC LED temperature (°C),internal box temperature (°C),relative humidity of the measurement (%),span deviation,mass concentration of particles derived from Lorenz-Mie calculation of OPC scattering (μg/m³),mass concentration of particles derived from Lorenz-Mie calculation of OPC scattering (μg/m³),mass concentration of particles derived from Lorenz-Mie calculation of OPC scattering (μg/m³)
DateTimeUTC,F1_M11,P_M11,Q1_M11,Q2_M11,T1_M11,T2_M11,T3_M11,T4_M11,T5_M11,U1_M11,ZSPAN_M11,X0_M11,X2_M11,X1_M11
2024-01-10 07:00:00,SystemResetWarning,0811.6,4.99,000.00,018.6,017.2,000.0,027.2,020.0,12.0,0000.0,0001.99,0000.44,0000.27
2024-01-10 07:01:00,SystemResetWarning,0811.7,5.00,000.00,018.7,017.3,000.0,027.2,020.1,12.0,0000.0,0001.98,0000.44,0000.27
2024-01-10 07:02:00,SystemResetWarning,0811.7,5.01,000.00,018.8,018.0,000.0,027.1,020.5,12.0,0000.0,0001.44,0000.42,0000.27
2024-01-10 07:03:00,SystemResetWarning,0811.7,5.00,000.00,018.9,018.7,000.0,027.2,020.7,12.0,0000.0,0000.72,0000.42,0000.27
2024-01-10 07:04:00,SystemResetWarning,0811.7,4.98,000.00,018.9,018.7,000.0,027.2,020.4,12.1,0000.0,0000.70,0000.41,0000.26
2024-01-10 07:05:00,SystemResetWarning,0811.7,5.00,000.00,018.9,018.6,000.0,027.1,020.2,12.1,0000.0,0000.83,0000.43,0000.26
2024-01-10 07:06:00,SystemResetWarning,0811.6,5.01,000.00,018.9,018.4,000.0,027.1,020.1,12.2,0000.0,0000.85,0000.44,0000.27
2024-01-10 07:07:00,SystemResetWarning,0811.6,5.00,000.00,018.8,018.2,000.0,027.1,020.0,12.3,0000.0,0000.86,0000.43,0000.27
2024-01-10 07:08:00,SystemResetWarning,0811.6,5.00,000.00,018.8,018.1,000.0,027.1,020.0,12.3,0000.0,0000.83,0000.43,0000.26
2024-01-10 07:09:00,SystemResetWarning,0811.6,5.00,000.00,018.8,017.9,000.0,027.2,020.0,12.4,0000.0,0000.81,0000.42,0000.26
2024-01-10 07:10:00,SystemResetWarning,0811.6,5.00,000.00,018.7,017.8,000.0,027.2,020.0,12.6,0000.0,0000.88,0000.43,0000.26
2024-01-10 07:11:00,SystemResetWarning,0811.6,5.00,000.00,018.7,017.7,000.0,027.2,020.0,12.6,0000.0,0000.91,0000.44,0000.26
2024-01-10 07:12:00,SystemResetWarning,0811.6,5.00,000.00,018.7,017.6,000.0,027.2,020.0,12.7,0000.0,0000.97,0000.47,0000.26
2024-01-10 07:13:00,SystemResetWarning,0811.6,5.00,000.00,018.7,017.6,000.0,027.2,020.0,12.8,0000.0,0001.05,0000.50,0000.27
2024-01-10 07:14:00,SystemResetWarning,0811.6,4.99,000.00,018.7,017.5,000.0,027.2,020.0,12.9,0000.0,0001.11,0000.52,0000.27
2024-01-10 07:15:00,SystemResetWarning,0811.6,4.99,000.00,018.7,017.4,000.0,027.2,020.0,13.0,0000.0,0001.23,0000.53,0000.27
2024-01-10 07:16:00,SystemResetWarning,0811.6,5.00,000.00,018.7,017.4,000.0,027.2,020.0,12.9,0000.0,0001.21,0000.54,0000.27
2024-01-10 07:17:00,SystemResetWarning,0811.6,5.00,000.00,018.7,017.3,000.0,027.2,020.0,12.9,0000.0,0001.27,0000.55,0000.27
2024-01-10 07:18:00,SystemResetWarning,0811.6,5.01,000.00,018.7,017.3,000.0,027.2,020.0,12.9,0000.0,0001.36,0000.56,0000.28
2024-01-10 07:19:00,SystemResetWarning,0811.7,5.01,000.00,018.7,017.3,000.0,027.2,020.0,13.0,0000.0,0001.46,0000.56,0000.28
2024-01-10 07:20:00,SystemResetWarning,0811.7,4.99,000.00,018.7,017.2,000.0,027.2,020.0,13.0,0000.0,0001.49,0000.56,0000.28
2024-01-10 07:21:00,SystemResetWarning,0811.8,4.99,000.00,018.7,017.2,000.0,027.2,020.0,13.0,0000.0,0001.46,0000.57,0000.28
2024-01-10 07:22:00,SystemResetWarning,0811.8,5.01,000.00,018.7,017.2,000.0,027.2,020.0,13.1,0000.0,0001.55,0000.58,0000.28
2024-01-10 07:23:00,SystemResetWarning,0811.9,5.00,000.00,018.7,017.2,000.0,027.2,020.0,13.2,0000.0,0001.60,0000.57,0000.27
2024-01-10 07:24:00,SystemResetWarning,0811.8,5.00,000.00,018.7,017.2,000.0,027.2,020.0,13.3,0000.0,0001.60,0000.56,0000.27
2024-01-10 07:25:00,SystemResetWarning,0812.0,5.01,000.00,018.7,017.2,000.0,027.2,020.0,13.3,0000.0,0001.51,0000.53,0000.27
2024-01-10 07:26:00,SystemResetWarning,0812.1,5.01,000.00,018.7,017.1,000.0,027.2,020.0,13.4,0000.0,0001.39,0000.53,0000.28
2024-01-10 07:27:00,SystemResetWarning,0812.1,5.00,000.00,018.7,017.1,000.0,027.2,020.0,13.4,0000.0,0001.29,0000.49,0000.28
2024-01-10 07:28:00,SystemResetWarning,0812.1,5.00,000.00,018.7,017.4,000.0,027.2,020.3,13.4,0000.0,0001.68,0000.48,0000.28
2024-01-10 07:29:00,SystemResetWarning,0812.2,5.00,000.00,018.8,018.2,000.0,027.2,020.7,13.4,0000.0,0001.96,0000.46,0000.27
2024-01-10 07:30:00,SystemResetWarning,0812.3,5.00,000.00,018.9,018.7,000.0,027.2,020.7,13.3,0000.0,0001.84,0000.44,0000.27
2024-01-10 07:31:00,SystemResetWarning,0812.3,5.00,000.00,018.9,018.7,000.0,027.2,020.3,13.3,0000.0,0001.86,0000.45,0000.27
2024-01-10 07:32:00,SystemResetWarning,0812.2,4.99,000.00,018.9,018.5,000.0,027.2,020.1,13.4,0000.0,0002.27,0000.47,0000.27
2024-01-10 07:33:00,SystemResetWarning,0812.4,4.99,000.00,018.9,018.3,000.0,027.1,020.0,13.4,0000.0,0002.20,0000.47,0000.27
2024-01-10 07:34:00,SystemResetWarning,0812.4,5.00,000.00,018.9,018.1,000.0,027.2,020.0,13.5,0000.0,0002.06,0000.44,0000.27
2024-01-10 07:35:00,SystemResetWarning,0812.4,5.00,000.00,018.8,017.9,000.0,027.2,020.0,13.6,0000.0,0002.02,0000.43,0000.27
2024-01-10 07:36:00,SystemResetWarning,0812.5,5.00,000.00,018.8,017.7,000.0,027.2,020.0,13.7,0000.0,0002.07,0000.42,0000.28
2024-01-10 07:37:00,SystemResetWarning,0812.5,5.00,000.00,018.8,017.6,000.0,027.2,020.0,13.8,0000.0,0002.12,0000.45,0000.28
2024-01-10 07:38:00,SystemResetWarning,0812.6,5.00,000.00,018.8,017.5,000.0,027.2,020.0,13.8,0000.0,0002.20,0000.48,0000.28
2024-01-10 07:39:00,SystemResetWarning,0812.6,5.01,000.00,018.8,017.4,000.0,027.2,020.0,13.9,0000.0,0001.90,0000.51,0000.29
2024-01-10 07:40:00,SystemResetWarning,0812.7,5.01,000.00,018.7,017.3,000.0,027.2,020.0,14.0,0000.0,0001.43,0000.52,0000.30
2024-01-10 07:41:00,SystemResetWarning,0812.7,5.01,000.00,018.7,017.3,000.0,027.2,020.0,14.0,0000.0,0001.44,0000.53,0000.31
2024-01-10 07:42:00,SystemResetWarning,0812.7,5.00,000.00,018.7,017.2,000.0,027.2,020.0,14.1,0000.0,0001.39,0000.55,0000.31
2024-01-10 07:43:00,SystemResetWarning,0812.7,5.00,000.00,018.7,017.2,000.0,027.2,020.0,14.2,0000.0,0001.06,0000.54,0000.32
2024-01-10 07:44:00,SystemResetWarning,0812.8,4.99,000.00,018.7,017.2,000.0,027.2,020.0,14.4,0000.0,0001.13,0000.55,0000.32
2024-01-10 07:45:00,SystemResetWarning,0812.8,5.00,000.00,018.7,017.2,000.0,027.2,020.0,14.4,0000.0,0001.26,0000.58,0000.32
2024-01-10 07:46:00,SystemResetWarning,0812.8,4.99,000.00,018.7,017.1,000.0,027.2,020.0,14.4,0000.0,0001.33,0000.59,0000.32
2024-01-10 07:47:00,SystemResetWarning,0812.9,5.00,000.00,018.6,017.1,000.0,027.2,020.0,14.4,0000.0,0001.30,0000.60,0000.33
2024-01-10 07:48:00,SystemResetWarning,0812.9,5.00,000.00,018.7,017.1,000.0,027.2,020.0,14.5,0000.0,0001.94,0000.61,0000.33
2024-01-10 07:49:00,SystemResetWarning,0813.0,5.00,000.00,018.6,017.1,000.0,027.2,020.0,14.5,0000.0,0002.19,0000.57,0000.33
2024-01-10 07:50:00,SystemResetWarning,0813.0,5.00,000.00,018.6,017.1,000.0,027.2,020.0,14.6,0000.0,0002.13,0000.55,0000.33
2024-01-10 07:51:00,SystemResetWarning,0813.0,5.01,000.00,018.6,017.1,000.0,027.2,020.0,14.6,0000.0,0002.18,0000.54,0000.33
2024-01-10 07:52:00,SystemResetWarning,0813.0,5.00,000.00,018.6,017.1,000.0,027.2,020.0,14.8,0000.0,0002.24,0000.57,0000.34
2024-01-10 07:53:00,SystemResetWarning,0813.0,4.99,000.00,018.6,017.1,000.0,027.2,020.0,14.7,0000.0,0002.33,0000.57,0000.34
2024-01-10 07:54:00,SystemResetWarning,0813.1,4.99,000.00,018.6,017.0,000.0,027.2,020.0,14.7,0000.0,0002.45,0000.57,0000.34
2024-01-10 07:55:00,SystemResetWarning,0813.1,5.00,000.00,018.6,017.0,000.0,027.2,020.0,14.8,0000.0,0002.50,0000.59,0000.34
2024-01-10 07:56:00,SystemResetWarning,0813.2,5.01,000.00,018.6,017.0,000.0,027.2,020.0,14.9,0000.0,0002.43,0000.57,0000.34
2024-01-10 07:57:00,SystemResetWarning,0813.1,5.01,000.00,018.6,017.0,000.0,027.2,020.0,14.9,0000.0,0002.33,0000.57,0000.34
2024-01-10 07:58:00,SystemResetWarning,0813.1,5.00,000.00,018.6,017.1,000.0,027.2,020.1,14.8,0000.0,0002.51,0000.59,0000.34
2024-01-10 07:59:00,SystemResetWarning,0813.1,5.00,000.00,018.7,017.9,000.0,027.2,020.5,14.4,0000.0,0001.91,0000.58,0000.34
